Time,TemperatureF,DewpointF,PressureIn,WindDirection,WindDirectionDegrees,WindSpeedMPH,WindSpeedGustMPH,Humidity,HourlyPrecipIn,Conditions,Clouds,dailyrainin,SoftwareType,DateUTC
2014-01-06 00:02:00,17.0,11.0,-100.00,North,-999,0.0,8.0,78,0.00,,,0.00,,2014-01-06 08:02:00,
2014-01-06 00:11:00,17.0,11.0,-100.00,North,-999,0.0,8.0,78,0.00,,,0.00,,2014-01-06 08:11:00,
2014-01-06 00:21:00,17.0,11.0,-100.00,North,-999,0.0,8.0,78,0.00,,,0.00,,2014-01-06 08:21:00,
2014-01-06 00:30:00,14.0,11.0,-100.00,North,-999,0.0,6.0,88,0.00,,,0.00,,2014-01-06 08:30:00,
2014-01-06 00:52:00,14.0,11.0,-100.00,North,-999,0.0,6.0,88,0.00,,,0.00,,2014-01-06 08:52:00,
2014-01-06 01:02:00,14.0,11.0,-100.00,North,-999,0.0,6.0,88,0.00,,,0.00,,2014-01-06 09:02:00,
2014-01-06 01:11:00,14.0,11.0,-100.00,North,-999,0.0,6.0,88,0.00,,,0.00,,2014-01-06 09:11:00,
2014-01-06 01:21:00,14.0,11.0,-100.00,North,-999,0.0,6.0,88,0.00,,,0.00,,2014-01-06 09:21:00,
2014-01-06 01:30:00,13.0,11.0,-100.00,North,-999,0.0,5.0,91,0.00,,,0.00,,2014-01-06 09:30:00,
2014-01-06 01:53:00,13.0,11.0,-100.00,North,-999,0.0,5.0,91,0.00,,,0.00,,2014-01-06 09:53:00,
2014-01-06 02:03:00,13.0,11.0,-100.00,North,-999,0.0,5.0,91,0.00,,,0.00,,2014-01-06 10:03:00,
2014-01-06 02:13:00,13.0,11.0,-100.00,North,-999,0.0,5.0,91,0.00,,,0.00,,2014-01-06 10:13:00,
2014-01-06 02:23:00,13.0,11.0,-100.00,North,-999,0.0,5.0,91,0.00,,,0.00,,2014-01-06 10:23:00,
2014-01-06 02:30:00,14.0,10.0,-100.00,North,-999,0.0,5.0,84,0.00,,,0.00,,2014-01-06 10:30:00,
2014-01-06 02:53:00,14.0,10.0,-100.00,North,-999,0.0,5.0,84,0.00,,,0.00,,2014-01-06 10:53:00,
2014-01-06 03:02:00,14.0,10.0,-100.00,North,-999,0.0,5.0,84,0.00,,,0.00,,2014-01-06 11:02:00,
2014-01-06 03:12:00,14.0,10.0,-100.00,North,-999,0.0,5.0,84,0.00,,,0.00,,2014-01-06 11:12:00,
2014-01-06 03:21:00,14.0,10.0,-100.00,North,-999,0.0,5.0,84,0.00,,,0.00,,2014-01-06 11:21:00,
2014-01-06 03:30:00,10.0,8.0,-100.00,North,-999,0.0,5.0,93,0.00,,,-99.99,,2014-01-06 11:30:00,
2014-01-06 03:53:00,10.0,8.0,-100.00,North,-999,0.0,5.0,93,0.00,,,-99.99,,2014-01-06 11:53:00,
2014-01-06 04:02:00,10.0,8.0,-100.00,North,-999,0.0,5.0,93,0.00,,,-99.99,,2014-01-06 12:02:00,
2014-01-06 04:11:00,10.0,8.0,-100.00,North,-999,0.0,5.0,93,0.00,,,-99.99,,2014-01-06 12:11:00,
2014-01-06 04:22:00,10.0,8.0,-100.00,North,-999,0.0,5.0,93,0.00,,,-99.99,,2014-01-06 12:22:00,
2014-01-06 04:30:00,11.0,9.0,-100.00,WNW,292,1.0,0.0,92,0.00,,,0.00,,2014-01-06 12:30:00,
2014-01-06 04:52:00,11.0,9.0,-100.00,WNW,292,1.0,0.0,92,0.00,,,0.00,,2014-01-06 12:52:00,
2014-01-06 05:01:00,11.0,9.0,-100.00,WNW,292,1.0,0.0,92,0.00,,,0.00,,2014-01-06 13:01:00,
2014-01-06 05:11:00,11.0,9.0,-100.00,WNW,292,1.0,0.0,92,0.00,,,0.00,,2014-01-06 13:11:00,
2014-01-06 05:21:00,11.0,9.0,-100.00,WNW,292,1.0,0.0,92,0.00,,,0.00,,2014-01-06 13:21:00,
2014-01-06 05:30:00,10.0,8.0,-100.00,North,-999,0.0,5.0,90,0.00,,,0.00,,2014-01-06 13:30:00,
2014-01-06 05:52:00,10.0,8.0,-100.00,North,-999,0.0,5.0,90,0.00,,,0.00,,2014-01-06 13:52:00,
2014-01-06 06:11:00,10.0,8.0,-100.00,North,-999,0.0,5.0,90,0.00,,,0.00,,2014-01-06 14:11:00,
2014-01-06 06:22:00,10.0,8.0,-100.00,North,-999,0.0,5.0,90,0.00,,,0.00,,2014-01-06 14:22:00,
2014-01-06 06:30:00,7.0,5.0,-100.00,North,-999,0.0,0.0,90,0.00,,,0.00,,2014-01-06 14:30:00,
2014-01-06 06:52:00,7.0,5.0,-100.00,North,-999,0.0,0.0,90,0.00,,,0.00,,2014-01-06 14:52:00,
2014-01-06 07:02:00,7.0,5.0,-100.00,North,-999,0.0,0.0,90,0.00,,,0.00,,2014-01-06 15:02:00,
2014-01-06 07:11:00,7.0,5.0,-100.00,North,-999,0.0,0.0,90,0.00,,,0.00,,2014-01-06 15:11:00,
2014-01-06 07:22:00,7.0,5.0,-100.00,North,-999,0.0,0.0,90,0.00,,,0.00,,2014-01-06 15:22:00,
2014-01-06 07:30:00,6.0,4.0,-100.00,North,-999,0.0,0.0,90,0.00,,,0.00,,2014-01-06 15:30:00,
2014-01-06 07:53:00,6.0,4.0,-100.00,North,-999,0.0,0.0,90,0.00,,,0.00,,2014-01-06 15:53:00,
2014-01-06 08:03:00,6.0,4.0,-100.00,North,-999,0.0,0.0,90,0.00,,,0.00,,2014-01-06 16:03:00,
2014-01-06 08:13:00,6.0,4.0,-100.00,North,-999,0.0,0.0,90,0.00,,,0.00,,2014-01-06 16:13:00,
2014-01-06 08:22:00,6.0,4.0,-100.00,North,-999,0.0,0.0,90,0.00,,,0.00,,2014-01-06 16:22:00,
2014-01-06 08:30:00,8.0,5.0,-100.00,North,-999,0.0,3.0,88,0.00,,,0.00,,2014-01-06 16:30:00,
2014-01-06 09:12:00,8.0,5.0,-100.00,North,-999,0.0,3.0,88,0.00,,,0.00,,2014-01-06 17:12:00,
2014-01-06 09:22:00,8.0,5.0,-100.00,North,-999,0.0,3.0,88,0.00,,,0.00,,2014-01-06 17:22:00,
2014-01-06 09:30:00,19.0,15.0,-100.00,North,-999,0.0,0.0,84,0.00,,,0.00,,2014-01-06 17:30:00,
2014-01-06 10:22:00,19.0,15.0,-100.00,North,-999,0.0,0.0,84,0.00,,,0.00,,2014-01-06 18:22:00,
2014-01-06 11:30:00,30.0,17.0,-100.00,North,-999,0.0,4.0,57,-99.99,,,0.00,,2014-01-06 19:30:00,
2014-01-06 12:21:00,30.0,17.0,-100.00,North,-999,0.0,4.0,57,-99.99,,,0.00,,2014-01-06 20:21:00,
2014-01-06 12:30:00,32.0,17.0,-100.00,East,96,1.0,5.0,53,0.00,,,0.00,,2014-01-06 20:30:00,
2014-01-06 12:52:00,32.0,17.0,-100.00,East,96,1.0,5.0,53,0.00,,,0.00,,2014-01-06 20:52:00,
2014-01-06 13:02:00,32.0,17.0,-100.00,East,96,1.0,5.0,53,0.00,,,0.00,,2014-01-06 21:02:00,
2014-01-06 13:12:00,32.0,17.0,-100.00,East,96,1.0,5.0,53,0.00,,,0.00,,2014-01-06 21:12:00,
2014-01-06 13:21:00,32.0,17.0,-100.00,East,96,1.0,5.0,53,0.00,,,0.00,,2014-01-06 21:21:00,
2014-01-06 13:30:00,29.0,16.0,-100.00,North,-999,0.0,5.0,57,0.00,,,0.00,,2014-01-06 21:30:00,
2014-01-06 13:53:00,29.0,16.0,-100.00,North,-999,0.0,5.0,57,0.00,,,0.00,,2014-01-06 21:53:00,
2014-01-06 14:03:00,29.0,16.0,-100.00,North,-999,0.0,5.0,57,0.00,,,0.00,,2014-01-06 22:03:00,
2014-01-06 14:13:00,29.0,16.0,-100.00,North,-999,0.0,5.0,57,0.00,,,0.00,,2014-01-06 22:13:00,
2014-01-06 14:23:00,29.0,16.0,-100.00,North,-999,0.0,5.0,57,0.00,,,0.00,,2014-01-06 22:23:00,
2014-01-06 14:30:00,30.0,17.0,-100.00,North,-999,0.0,3.0,58,0.00,,,0.00,,2014-01-06 22:30:00,
2014-01-06 14:52:00,30.0,17.0,-100.00,North,-999,0.0,3.0,58,0.00,,,0.00,,2014-01-06 22:52:00,
2014-01-06 15:02:00,30.0,17.0,-100.00,North,-999,0.0,3.0,58,0.00,,,0.00,,2014-01-06 23:02:00,
2014-01-06 15:12:00,30.0,17.0,-100.00,North,-999,0.0,3.0,58,0.00,,,0.00,,2014-01-06 23:12:00,
2014-01-06 15:21:00,30.0,17.0,-100.00,North,-999,0.0,3.0,58,0.00,,,0.00,,2014-01-06 23:21:00,
2014-01-06 15:30:00,28.0,17.0,-100.00,North,-999,0.0,3.0,63,0.00,,,0.00,,2014-01-06 23:30:00,
2014-01-06 15:52:00,28.0,17.0,-100.00,North,-999,0.0,3.0,63,0.00,,,0.00,,2014-01-06 23:52:00,
2014-01-06 16:02:00,28.0,17.0,-100.00,North,-999,0.0,3.0,63,0.00,,,0.00,,2014-01-07 00:02:00,
2014-01-06 16:11:00,28.0,17.0,-100.00,North,-999,0.0,3.0,63,0.00,,,0.00,,2014-01-07 00:11:00,
2014-01-06 16:22:00,28.0,17.0,-100.00,North,-999,0.0,3.0,63,0.00,,,0.00,,2014-01-07 00:22:00,
2014-01-06 16:30:00,21.0,16.0,-100.00,North,-999,0.0,3.0,82,0.00,,,0.00,,2014-01-07 00:30:00,
2014-01-06 16:52:00,21.0,16.0,-100.00,North,-999,0.0,3.0,82,0.00,,,0.00,,2014-01-07 00:52:00,
2014-01-06 17:02:00,21.0,16.0,-100.00,North,-999,0.0,3.0,82,0.00,,,0.00,,2014-01-07 01:02:00,
2014-01-06 17:12:00,21.0,16.0,-100.00,North,-999,0.0,3.0,82,0.00,,,0.00,,2014-01-07 01:12:00,
2014-01-06 17:21:00,21.0,16.0,-100.00,North,-999,0.0,3.0,82,0.00,,,0.00,,2014-01-07 01:21:00,
2014-01-06 17:30:00,19.0,16.0,-100.00,North,-999,0.0,0.0,88,0.00,,,0.00,,2014-01-07 01:30:00,
2014-01-06 17:52:00,19.0,16.0,-100.00,North,-999,0.0,0.0,88,0.00,,,0.00,,2014-01-07 01:52:00,
2014-01-06 18:01:00,19.0,16.0,-100.00,North,-999,0.0,0.0,88,0.00,,,0.00,,2014-01-07 02:01:00,
2014-01-06 18:11:00,19.0,16.0,-100.00,North,-999,0.0,0.0,88,0.00,,,0.00,,2014-01-07 02:11:00,
2014-01-06 18:21:00,19.0,16.0,-100.00,North,-999,0.0,0.0,88,0.00,,,0.00,,2014-01-07 02:21:00,
2014-01-06 18:30:00,17.0,16.0,-100.00,North,-999,0.0,0.0,94,0.00,,,0.00,,2014-01-07 02:30:00,
2014-01-06 18:52:00,17.0,16.0,-100.00,North,-999,0.0,0.0,94,0.00,,,0.00,,2014-01-07 02:52:00,
2014-01-06 19:02:00,17.0,16.0,-100.00,North,-999,0.0,0.0,94,0.00,,,0.00,,2014-01-07 03:02:00,
2014-01-06 19:11:00,17.0,16.0,-100.00,North,-999,0.0,0.0,94,0.00,,,0.00,,2014-01-07 03:11:00,
2014-01-06 19:21:00,17.0,16.0,-100.00,North,-999,0.0,0.0,94,0.00,,,0.00,,2014-01-07 03:21:00,
2014-01-06 19:30:00,14.0,13.0,-100.00,North,-999,0.0,0.0,96,0.00,,,0.00,,2014-01-07 03:30:00,
2014-01-06 19:53:00,14.0,13.0,-100.00,North,-999,0.0,0.0,96,0.00,,,0.00,,2014-01-07 03:53:00,
2014-01-06 20:03:00,14.0,13.0,-100.00,North,-999,0.0,0.0,96,0.00,,,0.00,,2014-01-07 04:03:00,
2014-01-06 20:13:00,14.0,13.0,-100.00,North,-999,0.0,0.0,96,0.00,,,0.00,,2014-01-07 04:13:00,
2014-01-06 20:23:00,14.0,13.0,-100.00,North,-999,0.0,0.0,96,0.00,,,0.00,,2014-01-07 04:23:00,
2014-01-06 20:30:00,13.0,12.0,-100.00,North,-999,0.0,0.0,95,0.00,,,0.00,,2014-01-07 04:30:00,
2014-01-06 20:53:00,13.0,12.0,-100.00,North,-999,0.0,0.0,95,0.00,,,0.00,,2014-01-07 04:53:00,
2014-01-06 21:02:00,13.0,12.0,-100.00,North,-999,0.0,0.0,95,0.00,,,0.00,,2014-01-07 05:02:00,
2014-01-06 21:12:00,13.0,12.0,-100.00,North,-999,0.0,0.0,95,0.00,,,0.00,,2014-01-07 05:12:00,
2014-01-06 21:22:00,13.0,12.0,-100.00,North,-999,0.0,0.0,95,0.00,,,0.00,,2014-01-07 05:22:00,
2014-01-06 21:30:00,15.0,13.0,-100.00,North,-999,0.0,0.0,93,0.00,,,0.00,,2014-01-07 05:30:00,
2014-01-06 21:53:00,15.0,13.0,-100.00,North,-999,0.0,0.0,93,0.00,,,0.00,,2014-01-07 05:53:00,
2014-01-06 22:02:00,15.0,13.0,-100.00,North,-999,0.0,0.0,93,0.00,,,0.00,,2014-01-07 06:02:00,
2014-01-06 22:12:00,15.0,13.0,-100.00,North,-999,0.0,0.0,93,0.00,,,0.00,,2014-01-07 06:12:00,
2014-01-06 22:22:00,15.0,13.0,-100.00,North,-999,0.0,0.0,93,0.00,,,0.00,,2014-01-07 06:22:00,
2014-01-06 22:30:00,14.0,12.0,-100.00,North,-999,0.0,0.0,92,0.00,,,0.00,,2014-01-07 06:30:00,
2014-01-06 22:52:00,14.0,12.0,-100.00,North,-999,0.0,0.0,92,0.00,,,0.00,,2014-01-07 06:52:00,
2014-01-06 23:02:00,14.0,12.0,-100.00,North,-999,0.0,0.0,92,0.00,,,0.00,,2014-01-07 07:02:00,
2014-01-06 23:11:00,14.0,12.0,-100.00,North,-999,0.0,0.0,92,0.00,,,0.00,,2014-01-07 07:11:00,
2014-01-06 23:22:00,14.0,12.0,-100.00,North,-999,0.0,0.0,92,0.00,,,0.00,,2014-01-07 07:22:00,
2014-01-06 23:30:00,16.0,14.0,-100.00,North,-999,0.0,0.0,93,0.00,,,0.00,,2014-01-07 07:30:00,
2014-01-06 23:52:00,16.0,14.0,-100.00,North,-999,0.0,0.0,93,0.00,,,0.00,,2014-01-07 07:52:00,